Date String (YYYY-MM-DD hh:mm:ss) UTC,Instrument flags,Ambient pressure (hPa),Sample flow (lpm),Bypass flow (lpm),Sample temperature (°C),Ambient temperature (°C),ASC tube jacket temperature (°C),LED temperature (°C),Box temperature (°C),Sample RH (%),Span deviation,Mass concentration (μg/m³),Mass concentration (μg/m³),Mass concentration (μg/m³)
DateTimeUTC,F1_M11,P_M11,Q1_M11,Q2_M11,T1_M11,T2_M11,T3_M11,T4_M11,T5_M11,U1_M11,ZSPAN_M11,X0_M11,X2_M11,X1_M11
2021-09-25 21:00:00,,0826.5,4.99,0.00,29.1,27.8,00.0,38.0,31.0,12.5,0003.0,0013.45,0006.68,0005.66
2021-09-25 21:01:00,,0826.5,4.99,0.00,29.2,28.1,00.0,38.1,31.1,12.5,0003.0,0012.50,0006.69,0005.65
2021-09-25 21:02:00,,0826.5,5.01,0.00,29.2,28.3,00.0,38.1,31.1,12.2,0003.2,0012.21,0006.70,0005.65
2021-09-25 21:03:00,,0826.5,5.01,0.00,29.2,27.7,00.0,38.1,31.0,12.4,0003.4,0012.20,0006.67,0005.64
2021-09-25 21:04:00,,0826.5,4.99,0.00,29.1,25.9,00.0,38.1,30.5,12.4,0003.2,0012.20,0006.63,0005.61
2021-09-25 21:05:00,,0826.5,5.01,0.00,29.0,25.7,00.0,38.1,30.4,12.9,0003.2,0012.09,0006.62,0005.61
2021-09-25 21:06:00,,0826.5,4.99,0.00,29.0,26.1,00.0,38.1,30.6,12.5,0003.2,0011.69,0006.56,0005.59
2021-09-25 21:07:00,,0826.5,4.99,0.00,29.0,26.6,00.0,38.0,30.7,12.3,0003.4,0011.39,0006.52,0005.58
2021-09-25 21:08:00,,0826.5,5.02,0.00,29.0,27.0,00.0,38.0,30.7,12.5,0003.1,0011.29,0006.50,0005.58
2021-09-25 21:09:00,,0826.5,5.00,0.00,29.0,27.4,00.0,38.0,30.8,12.6,0002.9,0011.11,0006.46,0005.57
2021-09-25 21:10:00,,0826.5,4.99,0.00,29.1,27.8,00.0,38.0,30.9,12.4,0002.8,0010.97,0006.40,0005.57
2021-09-25 21:11:00,,0826.5,5.00,0.00,29.1,28.1,00.0,38.1,31.0,12.0,0002.7,0011.01,0006.41,0005.57
2021-09-25 21:12:00,,0826.5,5.01,0.00,29.2,28.3,00.0,38.1,31.1,12.1,0002.7,0010.90,0006.37,0005.57
2021-09-25 21:13:00,,0826.5,5.00,0.00,29.2,27.9,00.0,38.1,31.0,12.1,0002.8,0011.41,0006.36,0005.58
2021-09-25 21:14:00,,0826.4,5.00,0.00,29.1,26.3,00.0,38.1,30.6,12.1,0003.1,0012.15,0006.39,0005.60
2021-09-25 21:15:00,,0826.4,4.99,0.00,29.0,25.7,00.0,38.1,30.4,12.5,0003.6,0012.41,0006.39,0005.63
2021-09-25 21:16:00,,0826.4,5.00,0.00,29.0,26.1,00.0,38.1,30.5,12.5,0003.6,0012.85,0006.43,0005.62
2021-09-25 21:17:00,,0826.5,5.00,0.00,28.9,26.5,00.0,38.0,30.6,12.4,0003.9,0013.70,0006.46,0005.62
2021-09-25 21:18:00,,0826.4,5.00,0.00,29.0,26.9,00.0,38.0,30.7,12.4,0003.7,0014.21,0006.46,0005.63
2021-09-25 21:19:00,,0826.4,4.99,0.00,29.0,27.3,00.0,38.0,30.8,12.5,0003.7,0015.02,0006.52,0005.65
2021-09-25 21:20:00,,0826.4,4.99,0.00,29.1,27.7,00.0,38.0,30.9,12.5,0003.9,0015.14,0006.57,0005.66
2021-09-25 21:21:00,,0826.3,5.01,0.00,29.1,28.0,00.0,38.0,31.0,12.6,0003.6,0015.63,0006.58,0005.65
2021-09-25 21:22:00,,0826.3,4.99,0.00,29.2,28.2,00.0,38.1,31.1,12.7,0003.3,0015.92,0006.59,0005.66
2021-09-25 21:23:00,,0826.2,5.01,0.00,29.2,28.1,00.0,38.1,31.1,12.6,0003.2,0016.08,0006.58,0005.67
2021-09-25 21:24:00,,0826.2,5.00,0.00,29.1,26.4,00.0,38.1,30.6,12.5,0003.2,0016.12,0006.55,0005.67
2021-09-25 21:25:00,,0826.2,4.99,0.00,29.0,25.6,00.0,38.1,30.4,12.7,0002.9,0015.24,0006.53,0005.68
2021-09-25 21:26:00,,0826.2,5.00,0.00,28.9,26.0,00.0,38.1,30.5,13.2,0002.9,0015.32,0006.50,0005.66
2021-09-25 21:27:00,,0826.2,5.01,0.00,28.9,26.4,00.0,38.0,30.5,12.6,0003.0,0015.14,0006.47,0005.66
2021-09-25 21:28:00,,0826.2,4.99,0.00,28.9,26.9,00.0,38.0,30.6,12.6,0002.6,0013.95,0006.44,0005.67
2021-09-25 21:29:00,,0826.2,5.00,0.00,29.0,27.3,00.0,38.0,30.8,12.6,0002.4,0013.48,0006.50,0005.68
2021-09-25 21:30:00,,0826.2,5.00,0.00,29.0,27.7,00.0,38.0,30.9,12.4,0002.4,0013.35,0006.51,0005.69
2021-09-25 21:31:00,,0826.2,5.01,0.00,29.1,28.0,00.0,38.0,31.0,12.1,0002.1,0013.38,0006.50,0005.70
2021-09-25 21:32:00,,0826.2,4.99,0.00,29.2,28.2,00.0,38.1,31.1,12.2,0002.4,0012.99,0006.52,0005.73
2021-09-25 21:33:00,,0826.2,5.01,0.00,29.2,28.1,00.0,38.1,31.1,12.4,0002.9,0013.47,0006.56,0005.77
2021-09-25 21:34:00,,0826.2,5.00,0.00,29.1,26.6,00.0,38.1,30.7,12.4,0003.3,0014.96,0006.59,0005.78
2021-09-25 21:35:00,,0826.1,4.99,0.00,29.0,25.6,00.0,38.1,30.4,12.4,0003.3,0014.37,0006.66,0005.80
2021-09-25 21:36:00,,0826.0,5.00,0.00,28.9,26.0,00.0,38.1,30.5,12.3,0003.1,0014.31,0006.70,0005.81
2021-09-25 21:37:00,,0825.9,5.01,0.00,28.9,26.4,00.0,38.0,30.6,12.1,0002.9,0013.81,0006.73,0005.84
2021-09-25 21:38:00,,0825.9,5.00,0.00,28.9,26.9,00.0,38.0,30.7,12.3,0002.5,0013.51,0006.75,0005.86
2021-09-25 21:39:00,,0826.0,4.99,0.00,29.0,27.3,00.0,38.0,30.8,12.5,0002.6,0014.47,0006.80,0005.88
2021-09-25 21:40:00,,0826.0,5.01,0.00,29.0,27.7,00.0,38.0,30.9,12.5,0003.1,0015.00,0006.81,0005.90
2021-09-25 21:41:00,,0826.0,4.99,0.00,29.1,28.0,00.0,38.0,31.0,12.5,0003.4,0015.23,0006.81,0005.90
2021-09-25 21:42:00,,0826.1,5.01,0.00,29.2,28.3,00.0,38.1,31.1,13.0,0003.6,0016.21,0006.85,0005.91
2021-09-25 21:43:00,,0826.0,5.00,0.00,29.2,28.5,00.0,38.1,31.2,13.2,0003.5,0017.05,0006.91,0005.92
2021-09-25 21:44:00,,0826.0,5.00,0.00,29.3,28.0,00.0,38.1,31.0,12.5,0003.2,0016.92,0006.95,0005.94
2021-09-25 21:45:00,,0825.9,5.01,0.00,29.1,26.1,00.0,38.1,30.5,13.0,0003.1,0015.61,0007.01,0005.95
2021-09-25 21:46:00,,0825.9,4.99,0.00,29.0,25.8,00.0,38.1,30.4,13.3,0003.5,0015.88,0007.06,0005.97
2021-09-25 21:47:00,,0825.9,5.00,0.00,29.0,26.2,00.0,38.1,30.5,13.1,0003.5,0016.07,0007.05,0005.98
2021-09-25 21:48:00,,0825.9,5.00,0.00,29.0,26.7,00.0,38.0,30.6,12.7,0003.5,0016.15,0007.07,0005.98
2021-09-25 21:49:00,,0825.9,4.99,0.00,29.0,27.1,00.0,38.0,30.8,12.8,0003.6,0016.36,0007.09,0005.98
2021-09-25 21:50:00,,0825.9,5.01,0.00,29.0,27.5,00.0,38.0,30.9,13.1,0003.7,0015.60,0007.11,0006.00
2021-09-25 21:51:00,,0825.9,5.00,0.00,29.1,27.8,00.0,38.1,31.0,12.9,0003.5,0015.60,0007.11,0006.01
2021-09-25 21:52:00,,0825.9,5.02,0.00,29.2,28.1,00.0,38.1,31.1,12.6,0003.0,0015.34,0007.13,0006.03
2021-09-25 21:53:00,,0825.9,5.00,0.00,29.2,27.8,00.0,38.1,30.9,12.6,0002.5,0014.46,0007.15,0006.03
2021-09-25 21:54:00,,0825.7,5.00,0.00,29.1,26.0,00.0,38.1,30.4,12.9,0002.1,0014.60,0007.15,0006.04
2021-09-25 21:55:00,,0825.9,5.01,0.00,28.9,25.5,00.0,38.1,30.2,13.1,0001.9,0015.78,0007.16,0006.04
2021-09-25 21:56:00,,0825.7,4.99,0.00,28.9,26.0,00.0,38.0,30.4,12.9,0001.7,0015.80,0007.15,0006.04
2021-09-25 21:57:00,,0825.8,5.00,0.00,28.9,26.4,00.0,38.0,30.5,12.7,0001.2,0016.05,0007.10,0006.04
2021-09-25 21:58:00,,0825.9,5.00,0.00,28.9,26.9,00.0,38.0,30.7,12.9,0001.3,0016.40,0007.15,0006.04
2021-09-25 21:59:00,,0826.0,4.99,0.00,28.9,27.3,00.0,38.0,30.8,12.4,0001.3,0017.14,0007.17,0006.05
